Weather History for Ft Riley, KS

Change the Weather History Date:

Thursday, February 6, 2014

  Actual Average (KMHK) Record (KMHK)
Temperature  
Mean Temperature 0 °F 31 °F  
Max Temperature 9 °F 43 °F 73 °F (2009)
Min Temperature -9 °F 19 °F -9 °F (2014)
Degree Days  
Heating Degree Days 65 34  
Month to date heating degree days 207  
Since 1 July heating degree days 3473  
Cooling Degree Days 0 0  
Month to date cooling degree days 0  
Year to date cooling degree days 0  
Moisture  
Dew Point -7 °F    
Average Humidity 62    
Maximum Humidity 79    
Minimum Humidity 48    
Precipitation  
Precipitation 0.00 in 0.03 in 1.13 in (2005)
Month to date precipitation 0.20  
Year to date precipitation 0.85  
Sea Level Pressure  
Sea Level Pressure 30.65 in    
Wind  
Wind Speed 4 mph (West)    
Max Wind Speed 9 mph    
Max Gust Speed -    
Visibility 10 miles    
Events      
T = Trace of Precipitation, MM = Missing Value Source: NWS Daily Summary

Daily Weather History Graph

Daily Weather History Graph

Search for Another Location

Airport:

Trip Planner

Search our weather history database for the weather conditions in past years. The results will help you decide how hot, cold, wet, or windy it might be!

Date:

Astronomy

Feb. 06, 2014 Rise Set
Actual Time 7:28 AM CST 5:54 PM CST
Civil Twilight 7:00 AM CST 6:21 PM CST
Nautical Twilight 6:29 AM CST 6:53 PM CST
Astronomical Twilight 5:57 AM CST 7:24 PM CST
Moon 11:26 AM CST (2/6) 12:45 AM CST (2/6)
Length of Visible Light 11h 21m
Length of Day
10h 25m
Waxing Crescent, 49% of the Moon is Illuminated
Feb 6
Waxing Crescent
Feb 6
First Quarter
Feb 14
Full
Feb 22
Last Quarter
Mar 1
New

Hourly Weather History & Observations

Time (CST) Temp. Windchill Dew Point Humidity Pressure Visibility Wind Dir Wind Speed Gust Speed Precip Events Conditions
12:58 AM 3.4 °F -11.1 °F -7.1 °F 62% 30.73 in 10.0 mi North 9.2 mph - N/A   Overcast
1:58 AM 2.5 °F -7.0 °F -7.8 °F 62% 30.73 in 10.0 mi North 4.6 mph - N/A   Scattered Clouds
2:58 AM 1.0 °F - -8.7 °F 64% 30.73 in 10.0 mi NW 2.3 mph - N/A   Clear
3:58 AM 1.0 °F -6.7 °F -8.5 °F 64% 30.72 in 10.0 mi WNW 3.5 mph - N/A   Partly Cloudy
4:58 AM -2.4 °F - -9.9 °F 70% 30.73 in 10.0 mi Calm Calm - N/A   Scattered Clouds
5:58 AM -5.4 °F - -10.5 °F 79% 30.73 in 10.0 mi Calm Calm - N/A   Partly Cloudy
6:58 AM -7.1 °F - -12.3 °F 78% 30.74 in 10.0 mi SSE 2.3 mph - N/A   Partly Cloudy
7:58 AM -9.2 °F -18.4 °F -14.4 °F 78% 30.75 in 10.0 mi South 3.5 mph - N/A   Mostly Cloudy
8:58 AM -2.2 °F -10.4 °F -9.4 °F 71% 30.75 in 10.0 mi SSW 3.5 mph - N/A   Overcast
9:58 AM -0.4 °F - -9.4 °F 66% 30.74 in 10.0 mi Calm Calm - N/A   Mostly Cloudy
10:58 AM 3.2 °F -7.8 °F -7.4 °F 61% 30.73 in 10.0 mi SW 5.8 mph - N/A   Overcast
11:58 AM 7.3 °F -4.1 °F -7.6 °F 51% 30.69 in 10.0 mi WNW 6.9 mph - N/A   Overcast
12:58 PM 8.8 °F -1.1 °F -7.4 °F 48% 30.66 in 10.0 mi NNW 5.8 mph - N/A   Overcast
1:58 PM 9.1 °F -1.9 °F -7.1 °F 48% 30.63 in 10.0 mi NNW 6.9 mph - N/A   Overcast
2:58 PM 9.7 °F 1.4 °F -6.0 °F 49% 30.60 in 10.0 mi WNW 4.6 mph - N/A   Overcast
3:58 PM 9.1 °F 2.6 °F -7.2 °F 48% 30.59 in 10.0 mi Variable 3.5 mph - N/A   Overcast
4:58 PM 8.6 °F - -6.5 °F 50% 30.57 in 10.0 mi NNW 2.3 mph - N/A   Overcast
5:58 PM 7.9 °F - -6.7 °F 52% 30.56 in 10.0 mi NNW 2.3 mph - N/A   Overcast
6:58 PM 6.4 °F - -6.0 °F 57% 30.56 in 10.0 mi Calm Calm - N/A   Overcast
7:58 PM 4.6 °F -2.5 °F -3.3 °F 70% 30.58 in 10.0 mi SSW 3.5 mph - N/A   Overcast
8:58 PM 6.3 °F -2.6 °F -3.1 °F 65% 30.48 in 10.0 mi SSW 4.6 mph - N/A   Overcast
9:58 PM 6.1 °F -4.3 °F -2.6 °F 68% 30.48 in 10.0 mi SSW 5.8 mph - N/A   Overcast
10:58 PM 6.1 °F - -2.6 °F 68% 30.53 in 10.0 mi SSW 2.3 mph - N/A   Overcast
11:58 PM 6.3 °F - -2.4 °F 68% 30.50 in 10.0 mi SSW 2.3 mph - N/A   Overcast